QPF
0.02 0.02 0.02 0.02 0.02 0.02 0.01 0.01 0.01 0.02 0.03 0.03 0.03 0.04 0.04 0.04 0.04 0.04 0.04 0.05 0.06 0.06 0.05 0.04 0.05 0.05 0.05 0.05 0.04 0.04 0.04 0.05 0.05 0.04 0.02 0.03 0.02 0.02 0.02 0.02 0.02 0.02 0.02
0.01 0.02 0.03 0.02 0.02 0.01 0.01 0.01 0.01 0.03 0.04 0.04 0.05 0.04 0.04 0.03 0.03 0.04 0.04 0.05 0.06 0.05 0.04 0.04 0.04 0.04 0.05 0.05 0.06 0.05 0.04 0.05 0.04 0.03 0.03 0.02 0.01 0.02 0.02 0.02 0.01 0.01 0.02
0.02 0.02 0.03 0.03 0.02 0.01 0.01 0.01 0.02 0.02 0.02 0.03 0.03 0.03 0.02 0.02 0.02 0.03 0.03 0.05 0.06 0.05 0.05 0.05 0.04 0.05 0.05 0.06 0.06 0.05 0.05 0.04 0.04 0.04 0.04 0.03 0.02 0.02 0.03 0.02 0.02 0.02 0.02
0.03 0.03 0.03 0.03 0.02 0.02 0.02 0.02 0.02 0.01 0.01 0.01 0.01 0.01 0.01 0.01 0.01 0.02 0.03 0.04 0.04 0.04 0.04 0.04 0.03 0.04 0.05 0.06 0.07 0.07 0.06 0.05 0.05 0.05 0.04 0.03 0.03 0.03 0.02 0.03 0.03 0.04 0.02
0.04 0.04 0.04 0.03 0.02 0.02 0.01 0.01 0.01 0.01 0.01 0.01 0.01 0.01 0.01 0.01 0.01 0.02 0.02 0.02 0.03 0.03 0.02 0.02 0.03 0.03 0.03 0.04 0.04 0.05 0.06 0.06 0.06 0.05 0.04 0.04 0.03 0.03 0.04 0.04 0.04 0.04 0.03
0.04 0.05 0.05 0.05 0.04 0.02 0.01 0.01 0.01 0.01 0.01 0.01 0.01 0.01 0.01 0.01 0.01 0.02 0.02 0.02 0.02 0.02 0.02 0.02 0.02 0.02 0.02 0.03 0.04 0.05 0.05 0.06 0.06 0.05 0.04 0.03 0.03 0.04 0.05 0.05 0.05 0.04 0.02
0.07 0.08 0.08 0.08 0.07 0.04 0.02 0.02 0.02 0.02 0.02 0.02 0.02 0.02 0.01 0.01 0.01 0.01 0.01 0.01 0.02 0.02 0.02 0.03 0.02 0.02 0.04 0.04 0.04 0.05 0.05 0.05 0.05 0.04 0.03 0.03 0.03 0.04 0.05 0.05 0.05 0.05 0.03
0.05 0.06 0.07 0.07 0.07 0.06 0.04 0.03 0.03 0.03 0.03 0.02 0.02 0.02 0.02 0.01 0.01 0.01 0.01 0.01 0.01 0.01 0.02 0.03 0.03 0.03 0.05 0.06 0.04 0.04 0.03 0.03 0.04 0.03 0.03 0.03 0.02 0.03 0.04 0.04 0.05 0.04 0.03
0.04 0.04 0.04 0.04 0.03 0.04 0.04 0.04 0.03 0.02 0.02 0.02 0.03 0.03 0.03 0.03 0.02 0.02 0.01 0.00 0.01 0.01 0.01 0.02 0.02 0.03 0.03 0.04 0.04 0.04 0.03 0.03 0.02 0.02 0.03 0.02 0.02 0.03 0.03 0.03 0.04 0.04 0.02
0.05 0.05 0.05 0.04 0.03 0.03 0.03 0.03 0.03 0.03 0.02 0.03 0.03 0.04 0.04 0.04 0.02 0.01 0.00 0.00 0.01 0.01 0.01 0.01 0.01 0.01 0.01 0.01 0.02 0.03 0.03 0.03 0.03 0.03 0.03 0.02 0.02 0.02 0.02 0.03 0.03 0.04 0.03
0.04 0.05 0.05 0.06 0.04 0.05 0.05 0.04 0.03 0.02 0.02 0.03 0.04 0.05 0.05 0.04 0.02 0.01 0.01 0.01 0.01 0.01 0.01 0.01 0.01 0.01 0.01 0.01 0.01 0.02 0.02 0.03 0.04 0.04 0.05 0.04 0.03 0.02 0.02 0.03 0.04 0.04 0.03
0.02 0.02 0.02 0.03 0.03 0.04 0.05 0.05 0.04 0.03 0.04 0.04 0.04 0.03 0.03 0.04 0.02 0.02 0.02 0.02 0.01 0.01 0.01 0.01 0.01 0.01 0.00 0.00 0.00 0.01 0.01 0.02 0.03 0.04 0.05 0.04 0.03 0.02 0.03 0.03 0.04 0.04 0.04
0.01 0.01 0.01 0.02 0.02 0.03 0.04 0.06 0.05 0.04 0.03 0.03 0.02 0.02 0.02 0.03 0.04 0.03 0.02 0.02 0.01 0.01 0.01 0.01 0.00 0.01 0.01 0.00 0.00 0.01 0.01 0.02 0.03 0.04 0.05 0.04 0.03 0.03 0.03 0.04 0.05 0.05 0.05
0.02 0.02 0.02 0.02 0.02 0.02 0.03 0.04 0.05 0.04 0.02 0.01 0.01 0.02 0.02 0.03 0.03 0.03 0.03 0.02 0.01 0.01 0.01 0.01 0.01 0.01 0.01 0.01 0.01 0.01 0.01 0.03 0.03 0.04 0.04 0.05 0.05 0.04 0.04 0.05 0.05 0.06 0.06
0.04 0.04 0.05 0.04 0.04 0.03 0.02 0.02 0.02 0.03 0.03 0.02 0.01 0.02 0.02 0.03 0.02 0.02 0.02 0.02 0.02 0.02 0.01 0.01 0.02 0.02 0.01 0.01 0.01 0.01 0.02 0.03 0.03 0.04 0.05 0.05 0.05 0.06 0.06 0.07 0.07 0.07 0.06
0.06 0.05 0.04 0.04 0.05 0.04 0.04 0.03 0.02 0.02 0.03 0.03 0.03 0.03 0.03 0.02 0.02 0.01 0.01 0.02 0.03 0.03 0.02 0.02 0.03 0.02 0.02 0.02 0.02 0.02 0.02 0.03 0.04 0.05 0.05 0.04 0.04 0.05 0.07 0.09 0.08 0.08 0.07
0.04 0.04 0.03 0.03 0.04 0.04 0.03 0.03 0.02 0.02 0.02 0.03 0.03 0.03 0.02 0.02 0.01 0.01 0.02 0.02 0.03 0.04 0.05 0.05 0.04 0.03 0.03 0.02 0.03 0.02 0.03 0.04 0.04 0.03 0.03 0.03 0.03 0.04 0.05 0.08 0.10 0.08 0.09
0.03 0.05 0.04 0.03 0.02 0.02 0.02 0.02 0.02 0.03 0.03 0.03 0.03 0.03 0.02 0.02 0.02 0.02 0.02 0.02 0.02 0.03 0.03 0.04 0.04 0.05 0.04 0.04 0.05 0.03 0.05 0.06 0.04 0.03 0.03 0.03 0.03 0.04 0.04 0.05 0.07 0.08 0.08
0.03 0.03 0.03 0.02 0.02 0.02 0.02 0.03 0.04 0.05 0.05 0.04 0.02 0.02 0.02 0.02 0.03 0.03 0.03 0.02 0.02 0.02 0.02 0.03 0.03 0.04 0.03 0.04 0.04 0.04 0.04 0.05 0.04 0.03 0.03 0.04 0.04 0.04 0.04 0.04 0.05 0.05 0.06
0.02 0.03 0.04 0.03 0.03 0.03 0.02 0.03 0.04 0.05 0.06 0.05 0.04 0.02 0.02 0.03 0.04 0.04 0.03 0.02 0.02 0.02 0.02 0.02 0.02 0.03 0.03 0.04 0.04 0.04 0.05 0.05 0.05 0.05 0.05 0.06 0.06 0.05 0.05 0.05 0.06 0.06 0.05
0.02 0.02 0.03 0.03 0.02 0.03 0.03 0.03 0.03 0.05 0.05 0.04 0.04 0.03 0.03 0.04 0.04 0.05 0.04 0.03 0.02 0.01 0.01 0.01 0.02 0.02 0.03 0.03 0.04 0.04 0.04 0.04 0.04 0.03 0.03 0.03 0.04 0.05 0.05 0.05 0.05 0.05 0.05
0.02 0.02 0.01 0.02 0.02 0.03 0.03 0.03 0.04 0.04 0.04 0.04 0.04 0.03 0.03 0.03 0.04 0.05 0.06 0.04 0.03 0.03 0.02 0.02 0.02 0.03 0.03 0.03 0.03 0.03 0.03 0.03 0.03 0.03 0.03 0.04 0.04 0.05 0.05 0.05 0.04 0.04 0.05
0.04 0.03 0.03 0.04 0.03 0.03 0.03 0.04 0.04 0.04 0.04 0.04 0.04 0.03 0.03 0.02 0.02 0.02 0.02 0.02 0.03 0.03 0.03 0.02 0.02 0.02 0.02 0.02 0.02 0.02 0.02 0.03 0.03 0.03 0.04 0.05 0.05 0.04 0.04 0.05 0.05 0.05 0.05
0.04 0.04 0.04 0.04 0.05 0.04 0.03 0.03 0.03 0.03 0.02 0.02 0.02 0.02 0.02 0.02 0.02 0.02 0.02 0.02 0.03 0.03 0.03 0.02 0.02 0.02 0.02 0.02 0.02 0.02 0.03 0.03 0.03 0.04 0.04 0.05 0.04 0.04 0.04 0.04 0.04 0.05 0.05
0.02 0.02 0.03 0.03 0.03 0.03 0.02 0.02 0.02 0.02 0.02 0.02 0.02 0.02 0.02 0.01 0.01 0.01 0.01 0.01 0.02 0.02 0.02 0.03 0.03 0.02 0.02 0.02 0.03 0.03 0.04 0.03 0.03 0.03 0.04 0.04 0.04 0.04 0.04 0.04 0.04 0.05 0.06
0.01 0.02 0.02 0.02 0.02 0.02 0.02 0.02 0.02 0.01 0.02 0.02 0.02 0.02 0.02 0.01 0.01 0.01 0.01 0.01 0.01 0.02 0.02 0.03 0.03 0.03 0.02 0.02 0.03 0.03 0.04 0.04 0.05 0.05 0.05 0.04 0.04 0.04 0.04 0.05 0.06 0.06 0.06
MSLP
1013.59 1014.16 1014.62 1014.94 1015.13 1015.21 1015.22 1015.18 1015.16 1015.16 1015.22 1015.32 1015.46 1015.60 1015.71 1015.77 1015.76 1015.68 1015.54 1015.38 1015.21 1015.06 1014.97 1014.93 1014.95 1015.00 1015.07 1015.12 1015.12 1015.03 1014.85 1014.57 1014.17 1013.67 1013.09 1012.44 1011.74 1011.04 1010.35 1009.69 1009.10 1008.59 1008.18
1013.30 1013.84 1014.28 1014.62 1014.84 1014.96 1015.02 1015.05 1015.06 1015.10 1015.18 1015.28 1015.41 1015.53 1015.62 1015.66 1015.64 1015.55 1015.42 1015.26 1015.11 1014.98 1014.89 1014.87 1014.90 1014.97 1015.06 1015.15 1015.20 1015.19 1015.09 1014.90 1014.60 1014.19 1013.69 1013.09 1012.43 1011.73 1011.00 1010.28 1009.60 1008.97 1008.43
1013.02 1013.51 1013.93 1014.26 1014.50 1014.68 1014.79 1014.87 1014.94 1015.02 1015.12 1015.23 1015.34 1015.44 1015.51 1015.53 1015.49 1015.41 1015.29 1015.15 1015.02 1014.93 1014.88 1014.88 1014.93 1015.03 1015.14 1015.25 1015.34 1015.37 1015.33 1015.20 1014.98 1014.66 1014.23 1013.71 1013.11 1012.45 1011.73 1011.00 1010.27 1009.57 1008.93
1012.73 1013.16 1013.54 1013.86 1014.12 1014.33 1014.50 1014.64 1014.77 1014.90 1015.03 1015.15 1015.26 1015.34 1015.38 1015.38 1015.33 1015.25 1015.14 1015.03 1014.95 1014.90 1014.89 1014.93 1015.02 1015.14 1015.27 1015.39 1015.48 1015.53 1015.51 1015.42 1015.25 1014.99 1014.64 1014.20 1013.68 1013.09 1012.43 1011.73 1011.01 1010.29 1009.61
1012.38 1012.75 1013.09 1013.39 1013.66 1013.91 1014.13 1014.33 1014.53 1014.71 1014.87 1015.01 1015.12 1015.19 1015.21 1015.19 1015.13 1015.05 1014.97 1014.90 1014.86 1014.86 1014.91 1015.00 1015.12 1015.26 1015.39 1015.51 1015.59 1015.62 1015.59 1015.50 1015.35 1015.13 1014.84 1014.49 1014.06 1013.56 1013.00 1012.38 1011.72 1011.03 1010.35
1011.93 1012.25 1012.56 1012.85 1013.13 1013.40 1013.67 1013.93 1014.19 1014.42 1014.63 1014.79 1014.91 1014.98 1014.99 1014.95 1014.89 1014.82 1014.75 1014.72 1014.73 1014.78 1014.89 1015.03 1015.18 1015.34 1015.48 1015.57 1015.62 1015.61 1015.55 1015.44 1015.28 1015.07 1014.82 1014.53 1014.19 1013.79 1013.34 1012.83 1012.27 1011.66 1011.03
1011.35 1011.66 1011.94 1012.23 1012.52 1012.82 1013.13 1013.45 1013.75 1014.04 1014.29 1014.48 1014.61 1014.67 1014.68 1014.64 1014.58 1014.52 1014.48 1014.48 1014.54 1014.65 1014.81 1015.00 1015.19 1015.37 1015.50 1015.58 1015.58 1015.53 1015.41 1015.25 1015.06 1014.84 1014.61 1014.36 1014.09 1013.79 1013.45 1013.06 1012.62 1012.11 1011.56
1010.64 1010.95 1011.25 1011.55 1011.86 1012.19 1012.54 1012.89 1013.24 1013.56 1013.84 1014.06 1014.20 1014.27 1014.28 1014.25 1014.19 1014.15 1014.14 1014.18 1014.29 1014.46 1014.67 1014.91 1015.14 1015.34 1015.47 1015.53 1015.50 1015.40 1015.23 1015.02 1014.78 1014.53 1014.29 1014.06 1013.84 1013.61 1013.36 1013.07 1012.74 1012.35 1011.90
1009.82 1010.17 1010.51 1010.84 1011.18 1011.54 1011.92 1012.30 1012.67 1013.01 1013.30 1013.53 1013.68 1013.76 1013.78 1013.75 1013.72 1013.70 1013.73 1013.83 1013.99 1014.21 1014.48 1014.77 1015.04 1015.26 1015.41 1015.46 1015.42 1015.28 1015.07 1014.80 1014.52 1014.23 1013.97 1013.73 1013.52 1013.33 1013.14 1012.94 1012.69 1012.40 1012.04
1008.91 1009.34 1009.74 1010.13 1010.51 1010.90 1011.29 1011.68 1012.05 1012.39 1012.68 1012.91 1013.06 1013.15 1013.18 1013.18 1013.18 1013.20 1013.28 1013.42 1013.64 1013.93 1014.25 1014.59 1014.91 1015.16 1015.33 1015.40 1015.35 1015.20 1014.97 1014.67 1014.35 1014.03 1013.74 1013.48 1013.26 1013.07 1012.90 1012.73 1012.54 1012.31 1012.03
1007.97 1008.49 1008.97 1009.42 1009.85 1010.26 1010.66 1011.05 1011.40 1011.73 1012.00 1012.21 1012.36 1012.45 1012.51 1012.54 1012.59 1012.66 1012.80 1013.00 1013.28 1013.62 1014.00 1014.38 1014.74 1015.04 1015.24 1015.33 1015.30 1015.16 1014.93 1014.64 1014.30 1013.96 1013.64 1013.35 1013.11 1012.90 1012.72 1012.55 1012.37 1012.17 1011.93
1007.00 1007.62 1008.19 1008.70 1009.18 1009.61 1010.01 1010.38 1010.71 1011.00 1011.25 1011.44 1011.59 1011.70 1011.79 1011.87 1011.98 1012.12 1012.32 1012.59 1012.92 1013.31 1013.73 1014.15 1014.54 1014.87 1015.10 1015.23 1015.23 1015.13 1014.93 1014.65 1014.33 1014.00 1013.66 1013.35 1013.08 1012.83 1012.62 1012.42 1012.23 1012.02 1011.79
1006.02 1006.72 1007.37 1007.95 1008.46 1008.92 1009.31 1009.66 1009.96 1010.22 1010.44 1010.62 1010.78 1010.92 1011.06 1011.21 1011.39 1011.61 1011.88 1012.21 1012.59 1013.01 1013.45 1013.88 1014.28 1014.62 1014.88 1015.03 1015.08 1015.02 1014.87 1014.65 1014.37 1014.06 1013.74 1013.43 1013.14 1012.86 1012.61 1012.37 1012.14 1011.91 1011.66
1005.00 1005.77 1006.48 1007.11 1007.65 1008.12 1008.51 1008.84 1009.12 1009.35 1009.57 1009.76 1009.95 1010.15 1010.36 1010.59 1010.85 1011.15 1011.49 1011.87 1012.28 1012.71 1013.14 1013.56 1013.94 1014.27 1014.53 1014.70 1014.78 1014.77 1014.69 1014.53 1014.32 1014.07 1013.80 1013.51 1013.22 1012.94 1012.65 1012.38 1012.10 1011.83 1011.55
1003.94 1004.74 1005.48 1006.14 1006.70 1007.18 1007.57 1007.89 1008.17 1008.41 1008.65 1008.88 1009.13 1009.40 1009.70 1010.02 1010.38 1010.76 1011.16 1011.57 1011.99 1012.40 1012.80 1013.17 1013.51 1013.79 1014.02 1014.19 1014.29 1014.34 1014.32 1014.24 1014.12 1013.95 1013.75 1013.52 1013.27 1012.99 1012.71 1012.40 1012.09 1011.78 1011.45
1002.83 1003.61 1004.35 1005.02 1005.59 1006.07 1006.48 1006.82 1007.12 1007.40 1007.68 1007.98 1008.32 1008.69 1009.10 1009.53 1009.98 1010.43 1010.88 1011.31 1011.72 1012.09 1012.42 1012.71 1012.97 1013.18 1013.37 1013.51 1013.63 1013.71 1013.76 1013.77 1013.75 1013.69 1013.58 1013.43 1013.24 1013.00 1012.73 1012.42 1012.09 1011.74 1011.37
1001.65 1002.39 1003.10 1003.75 1004.33 1004.82 1005.25 1005.63 1005.98 1006.33 1006.70 1007.10 1007.55 1008.03 1008.56 1009.10 1009.63 1010.15 1010.63 1011.06 1011.43 1011.74 1011.99 1012.19 1012.35 1012.49 1012.61 1012.73 1012.85 1012.97 1013.08 1013.18 1013.26 1013.31 1013.31 1013.25 1013.13 1012.95 1012.71 1012.42 1012.08 1011.70 1011.29
1000.43 1001.10 1001.77 1002.39 1002.96 1003.48 1003.94 1004.38 1004.81 1005.25 1005.72 1006.24 1006.81 1007.42 1008.05 1008.69 1009.30 1009.87 1010.37 1010.78 1011.11 1011.35 1011.51 1011.62 1011.70 1011.76 1011.84 1011.93 1012.06 1012.21 1012.39 1012.58 1012.76 1012.90 1013.00 1013.04 1013.00 1012.88 1012.67 1012.40 1012.05 1011.65 1011.21
999.21 999.80 1000.40 1000.99 1001.56 1002.10 1002.62 1003.13 1003.65 1004.19 1004.78 1005.42 1006.10 1006.82 1007.55 1008.27 1008.94 1009.54 1010.04 1010.43 1010.71 1010.90 1011.00 1011.04 1011.06 1011.08 1011.13 1011.22 1011.37 1011.57 1011.82 1012.08 1012.35 1012.58 1012.77 1012.87 1012.89 1012.81 1012.63 1012.36 1012.00 1011.58 1011.10
998.01 998.52 999.07 999.64 1000.21 1000.78 1001.35 1001.93 1002.54 1003.19 1003.88 1004.63 1005.41 1006.21 1007.02 1007.79 1008.49 1009.10 1009.60 1009.98 1010.23 1010.38 1010.45 1010.47 1010.47 1010.49 1010.56 1010.69 1010.89 1011.15 1011.47 1011.80 1012.13 1012.43 1012.67 1012.81 1012.85 1012.78 1012.60 1012.31 1011.93 1011.47 1010.95
996.88 997.32 997.83 998.38 998.97 999.57 1000.20 1000.85 1001.54 1002.27 1003.05 1003.87 1004.72 1005.58 1006.42 1007.21 1007.93 1008.54 1009.03 1009.40 1009.65 1009.80 1009.88 1009.93 1009.97 1010.05 1010.18 1010.39 1010.67 1011.01 1011.40 1011.79 1012.17 1012.50 1012.74 1012.88 1012.91 1012.80 1012.58 1012.25 1011.82 1011.31 1010.74
995.85 996.26 996.74 997.29 997.89 998.53 999.20 999.91 1000.66 1001.44 1002.27 1003.14 1004.02 1004.90 1005.74 1006.53 1007.24 1007.85 1008.34 1008.71 1008.99 1009.18 1009.32 1009.45 1009.59 1009.77 1010.02 1010.34 1010.72 1011.16 1011.61 1012.06 1012.45 1012.78 1012.99 1013.08 1013.03 1012.86 1012.55 1012.14 1011.64 1011.07 1010.44
994.96 995.36 995.84 996.41 997.02 997.69 998.39 999.13 999.91 1000.73 1001.57 1002.44 1003.32 1004.19 1005.01 1005.78 1006.47 1007.06 1007.56 1007.96 1008.29 1008.56 1008.80 1009.05 1009.33 1009.66 1010.05 1010.51 1011.01 1011.54 1012.06 1012.53 1012.92 1013.20 1013.35 1013.35 1013.20 1012.90 1012.49 1011.97 1011.37 1010.73 1010.05
994.22 994.64 995.14 995.72 996.36 997.04 997.76 998.51 999.30 1000.12 1000.95 1001.80 1002.65 1003.48 1004.27 1005.01 1005.67 1006.26 1006.78 1007.22 1007.62 1007.99 1008.36 1008.76 1009.20 1009.69 1010.24 1010.84 1011.46 1012.07 1012.63 1013.11 1013.47 1013.68 1013.73 1013.61 1013.33 1012.90 1012.36 1011.72 1011.03 1010.30 1009.58
993.65 994.10 994.63 995.23 995.88 996.57 997.30 998.05 998.82 999.62 1000.43 1001.24 1002.05 1002.84 1003.59 1004.30 1004.95 1005.55 1006.09 1006.59 1007.07 1007.56 1008.06 1008.60 1009.20 1009.85 1010.54 1011.26 1011.98 1012.65 1013.23 1013.69 1014.00 1014.12 1014.06 1013.81 1013.39 1012.82 1012.15 1011.40 1010.62 1009.83 1009.06
993.27 993.75 994.31 994.92 995.58 996.27 996.98 997.72 998.47 999.24 1000.02 1000.80 1001.57 1002.33 1003.06 1003.75 1004.40 1005.02 1005.60 1006.16 1006.73 1007.32 1007.94 1008.61 1009.34 1010.11 1010.92 1011.72 1012.49 1013.19 1013.76 1014.18 1014.42 1014.45 1014.27 1013.89 1013.35 1012.66 1011.87 1011.03 1010.18 1009.34 1008.55
Thickness
5807 5804 5802 5799 5797 5794 5792 5790 5789 5787 5785 5782 5781 5779 5777 5775 5774 5772 5770 5768 5766 5764 5762 5760 5757 5756 5753 5751 5750 5747 5743 5738 5728 5727 5727 5725 5722 5719 5716 5713 5711 5708 5704
5808 5805 5801 5799 5796 5793 5791 5790 5788 5785 5783 5781 5779 5776 5775 5773 5772 5770 5768 5766 5763 5761 5759 5757 5755 5754 5750 5748 5745 5743 5740 5737 5731 5724 5723 5721 5719 5717 5714 5712 5710 5707 5704
5808 5804 5800 5797 5794 5792 5790 5788 5786 5784 5781 5780 5777 5774 5772 5770 5769 5768 5766 5764 5761 5759 5757 5754 5752 5749 5746 5745 5742 5740 5737 5736 5732 5725 5721 5720 5717 5715 5711 5709 5708 5705 5703
5806 5802 5797 5795 5793 5791 5789 5787 5784 5782 5779 5777 5774 5772 5769 5768 5766 5764 5762 5760 5758 5756 5754 5752 5749 5747 5744 5742 5740 5737 5735 5731 5728 5723 5719 5716 5713 5712 5708 5703 5701 5701 5700
5802 5798 5795 5794 5791 5789 5786 5784 5781 5779 5777 5774 5771 5769 5767 5765 5763 5760 5758 5756 5753 5751 5750 5748 5747 5744 5742 5739 5738 5734 5731 5727 5724 5719 5715 5712 5709 5705 5702 5701 5697 5696 5695
5799 5795 5793 5791 5788 5785 5783 5780 5777 5775 5773 5770 5768 5765 5763 5762 5759 5756 5752 5751 5749 5747 5745 5744 5743 5741 5738 5736 5734 5730 5727 5723 5720 5716 5712 5708 5706 5704 5702 5698 5694 5689 5687
5794 5791 5788 5785 5782 5780 5778 5775 5772 5770 5768 5765 5764 5761 5759 5756 5753 5750 5747 5745 5744 5743 5741 5739 5739 5738 5734 5731 5729 5726 5724 5721 5718 5715 5709 5707 5704 5703 5699 5694 5691 5687 5685
5789 5785 5783 5780 5776 5773 5770 5767 5766 5765 5762 5760 5758 5757 5755 5752 5748 5745 5742 5740 5740 5739 5737 5736 5733 5731 5729 5725 5723 5721 5719 5717 5714 5711 5709 5707 5704 5702 5698 5693 5690 5687 5685
5781 5778 5776 5774 5770 5767 5763 5761 5761 5759 5757 5755 5754 5752 5749 5746 5742 5739 5736 5736 5735 5733 5733 5731 5728 5724 5721 5719 5716 5714 5712 5710 5710 5707 5705 5703 5701 5698 5694 5689 5685 5680 5677
5775 5773 5771 5768 5765 5761 5759 5757 5756 5753 5751 5749 5748 5746 5743 5740 5736 5733 5730 5729 5727 5726 5725 5724 5721 5718 5715 5711 5709 5706 5703 5704 5703 5701 5698 5697 5695 5693 5690 5686 5682 5676 5674
5771 5768 5764 5761 5758 5757 5755 5752 5749 5747 5745 5742 5741 5740 5737 5735 5730 5727 5723 5721 5719 5718 5717 5716 5714 5711 5707 5704 5701 5700 5698 5696 5695 5694 5692 5691 5689 5687 5685 5682 5679 5675 5671
5765 5761 5758 5755 5754 5752 5748 5745 5743 5740 5737 5734 5733 5731 5730 5728 5724 5720 5716 5713 5711 5709 5708 5709 5707 5704 5701 5698 5695 5695 5692 5689 5688 5687 5685 5684 5682 5681 5680 5678 5676 5673 5670
5756 5753 5750 5748 5746 5745 5741 5738 5735 5733 5730 5728 5725 5722 5721 5720 5717 5713 5708 5705 5703 5701 5701 5700 5698 5696 5693 5692 5690 5688 5685 5682 5681 5679 5679 5679 5678 5678 5676 5674 5672 5669 5667
5747 5744 5742 5740 5738 5736 5734 5732 5728 5725 5722 5720 5717 5715 5713 5711 5708 5704 5701 5698 5695 5693 5692 5692 5690 5689 5687 5685 5683 5680 5679 5678 5675 5674 5674 5674 5673 5671 5669 5667 5664 5662 5659
5737 5736 5734 5733 5730 5728 5726 5724 5722 5720 5718 5713 5710 5708 5704 5702 5700 5696 5692 5690 5688 5686 5683 5683 5683 5681 5679 5678 5677 5676 5674 5672 5670 5669 5668 5666 5665 5663 5661 5660 5657 5654 5651
5727 5726 5726 5725 5723 5721 5718 5716 5715 5713 5710 5707 5704 5701 5699 5696 5693 5690 5687 5684 5681 5677 5674 5675 5675 5674 5673 5672 5671 5669 5668 5667 5665 5664 5662 5661 5659 5657 5655 5653 5650 5647 5645
5719 5718 5718 5718 5716 5713 5712 5709 5706 5703 5701 5699 5696 5693 5690 5687 5684 5682 5679 5675 5672 5669 5667 5668 5667 5667 5666 5665 5664 5663 5662 5661 5659 5657 5655 5654 5653 5651 5649 5646 5644 5641 5639
5712 5711 5710 5710 5709 5708 5706 5705 5703 5699 5694 5692 5689 5686 5683 5680 5677 5673 5670 5666 5664 5662 5663 5662 5661 5660 5659 5658 5656 5655 5654 5652 5650 5649 5648 5646 5645 5643 5641 5639 5637 5635 5633
5704 5703 5702 5702 5701 5700 5700 5698 5697 5694 5690 5688 5686 5682 5677 5673 5669 5665 5661 5659 5659 5657 5657 5656 5655 5654 5653 5651 5649 5648 5646 5644 5642 5640 5640 5639 5637 5635 5633 5632 5630 5628 5626
5697 5695 5694 5693 5693 5692 5691 5690 5688 5685 5682 5680 5678 5676 5671 5666 5662 5659 5656 5655 5654 5652 5651 5650 5649 5648 5646 5643 5641 5639 5638 5636 5634 5633 5632 5631 5630 5628 5626 5624 5623 5621 5620
5689 5688 5685 5684 5683 5683 5681 5680 5678 5677 5674 5672 5671 5669 5664 5661 5658 5656 5654 5651 5648 5647 5645 5644 5642 5641 5639 5636 5634 5632 5630 5629 5627 5626 5625 5624 5623 5621 5619 5617 5616 5615 5613
5682 5680 5679 5677 5675 5674 5673 5672 5670 5669 5667 5665 5664 5662 5657 5656 5654 5652 5649 5646 5644 5641 5640 5637 5635 5633 5631 5629 5627 5624 5622 5621 5619 5617 5617 5617 5615 5613 5611 5610 5608 5607 5606
5674 5673 5673 5671 5668 5666 5665 5664 5662 5661 5659 5657 5655 5653 5650 5648 5647 5645 5643 5640 5638 5635 5633 5631 5628 5626 5624 5621 5619 5617 5613 5611 5610 5609 5608 5608 5607 5605 5603 5602 5601 5600 5600
5666 5665 5664 5663 5661 5660 5657 5656 5654 5653 5651 5649 5646 5644 5642 5640 5639 5637 5635 5633 5630 5628 5626 5624 5621 5618 5615 5613 5610 5608 5605 5603 5601 5600 5599 5599 5598 5597 5596 5595 5595 5594 5594
5658 5657 5656 5655 5653 5651 5649 5648 5646 5644 5642 5640 5637 5635 5634 5633 5631 5629 5626 5624 5622 5620 5618 5615 5613 5611 5608 5605 5602 5600 5597 5594 5593 5592 5591 5592 5591 5590 5589 5589 5588 5588 5588
5650 5649 5648 5647 5645 5643 5641 5639 5637 5635 5633 5631 5629 5627 5626 5624 5622 5620 5618 5616 5614 5612 5609 5607 5605 5602 5600 5598 5595 5591 5588 5587 5586 5585 5584 5584 5584 5583 5582 5582 5582 5582 5581